User: anonymous   Login
Location: Wien
(48.2082°N, 16.3738°E)
Time: 19:12:51
(UTC+01:00)
Language:

BUGSAT 1 - Orbit

View from above orbital plane
View from above orbital plane
View from above satellite
View from above satellite

Ground track
Ground track

The orbit data is extracted from the following two-line orbital elements,

1 40014U 14033E   19083.44969229  .00000053  00000-0  10453-4 0  9991
2 40014  98.0058  29.1114 0031824 348.8060  11.2443 14.95217786259614
Epoch (UTC): 24 March 2019 10:47:33
Eccentricity: 0.0031824
inclination: 98.0058°
perigee height: 559 km
apogee height: 604 km
right ascension of ascending node: 29.1114°
argument of perigee: 348.8060°
revolutions per day: 14.95217786
mean anomaly at epoch: 11.2443°
orbit number at epoch: 25961

The dashed part of the orbit path shows where the satellite is in the earth's shadow,  

DLR